Weather Service Report


018 
ASUS43 KFSD 210310
RWRFSD

WEATHER ROUNDUP FOR SE SOUTH DAKOTA/SW MINNESOTA/NW IOWA
NATIONAL WEATHER SERVICE SIOUX FALLS SD
1000 PM CDT MON OCT 20 2014

NOTE: "FAIR" INDICATES FEW OR NO CLOUDS BELOW 12,000 FEET WITH NO
SIGNIFICANT WEATHER AND OR OBSTRUCTIONS TO VISIBILITY.


SDZ038>040-050-052>070-210400-
SOUTHEAST SOUTH DAKOTA
  
CITY           SKY/WX    TMP DP  RH WIND       PRES   REMARKS
CHAMBERLAIN    CLEAR     51  35  54 SE9       29.99S                  
HURON          CLEAR     51  34  52 SE8       30.02S                  
MADISON        FAIR      45  34  65 CALM      30.06S                  
MITCHELL       CLEAR     49  36  61 SE7       30.03S                  
SIOUX FALLS    CLEAR     49  39  68 CALM      30.05R                  
WINNER         FAIR      58  40  51 SE9       29.97S                  
YANKTON        CLEAR     50  37  62 CALM      30.05S                  
$$

MNZ071-072-080-081-089-090-097-098-210400-
SOUTHWEST MINNESOTA
  
CITY           SKY/WX    TMP DP  RH WIND       PRES   REMARKS
FAIRMONT       CLEAR     50  36  57 MISG      30.04S                  
JACKSON        CLEAR     43  34  70 CALM      30.06R                  
LUVERNE        CLEAR     46  36  66 CALM      30.07R                  
MARSHALL       CLEAR     41  30  65 W5        30.04S                  
MONTEVIDEO     CLEAR     46  37  71 CALM      30.06R                  
PIPESTONE      CLEAR     50  36  57 CALM      30.06R                  
REDWOOD FALLS  CLEAR     54  39  57 N3        30.04S                  
TRACY          CLEAR     46  37  71 CALM      30.05S                  
WINDOM         CLEAR     46  36  66 CALM      30.05S                  
WORTHINGTON    CLEAR     45  34  65 CALM      30.07R                  
$$

IAZ001>003-012>014-020>022-031-032-NEZ013-014-SDZ071-210400-
NORTHWEST IOWA
  
CITY           SKY/WX    TMP DP  RH WIND       PRES   REMARKS
CHEROKEE       CLEAR     44  40  86 CALM      30.05R                  
DENISON        PTCLDY    43  41  93 SE5       30.04S                  
ESTHERVILLE    CLEAR     42  35  76 NW6       30.05R                  
LE MARS        CLEAR     43  39  87 CALM      30.06R                  
ORANGE CITY    CLEAR     57  39  51 CALM      30.06R                  
SHELDON        CLEAR     43  36  75 CALM      30.06R                  
SIOUX CITY     CLEAR     42  40  92 CALM      30.06R                  
SPENCER        CLEAR     41  35  79 CALM      30.06R                  
STORM LAKE     CLEAR     54  37  54 N6        30.06R                  
$$
 
ABBREVIATIONS USED IN REMARKS
   TC - TEMPERATURE IN CELSIUS
  WCI - WIND CHILL INDEX
   HX - HEAT INDEX
  VSB - VISIBILITY



019 
ASUS43 KFSD 210310
RWRSD 

WEATHER ROUNDUP FOR SOUTH DAKOTA
NATIONAL WEATHER SERVICE SIOUX FALLS SD
1000 PM CDT MON OCT 20 2014

NOTE: "FAIR" INDICATES FEW OR NO CLOUDS BELOW 12,000 FEET WITH NO
SIGNIFICANT WEATHER AND/OR OBSTRUCTIONS TO VISIBILITY.


SDZ001>005-009-010-012>017-210400-
NORTHWEST AND NORTH CENTRAL SOUTH DAKOTA
  
CITY           SKY/WX    TMP DP  RH WIND       PRES   REMARKS
BUFFALO          N/A     58  42  55 E6        29.82F                  
FAITH            N/A     59  40  49 SE17      29.88F                  
MOBRIDGE       CLEAR     58  35  42 SE13      29.92S                  
$$
 
SDZ012>016-024>037-041>051-057-063-072>074-210400-
SOUTHWEST AND SOUTH CENTRAL SOUTH DAKOTA
  
CITY           SKY/WX    TMP DP  RH WIND       PRES   REMARKS
RAPID CTY ARPT CLEAR     57  43  59 SE6       29.90F                  
PIERRE         CLEAR     60  38  43 SE16      29.93S                  
CUSTER         CLEAR     50  36  58 CALM      30.03F                  
ELLSWORTH AFB  CLEAR     62  45  53 S6        29.89F                  
PHILIP         CLEAR     57  40  52 E6        29.89S                  
PINE RIDGE     CLEAR     67  39  35 S18G25    29.95R                  
SPEARFISH      FAIR      50  37  62 CALM      29.92S                  
WINNER         FAIR      58  40  51 SE9       29.97S                  
$$
 
SDZ004>011-016>023-039-040-210400-
NORTHEAST SOUTH DAKOTA
  
CITY           SKY/WX    TMP DP  RH WIND       PRES   REMARKS
ABERDEEN       CLEAR     48  35  60 E8        30.02R                  
WATERTOWN      CLEAR     47  37  68 CALM      30.05R                  
SISSETON         N/A     39  36  89 W5        30.05R                  
$$
 
SDZ017-020-022-023-036>040-048>070-210400-
SOUTHEAST SOUTH DAKOTA
  
CITY           SKY/WX    TMP DP  RH WIND       PRES   REMARKS
SIOUX FALLS    CLEAR     49  39  68 CALM      30.05R                  
HURON          CLEAR     51  34  52 SE8       30.02S                  
CHAMBERLAIN    CLEAR     51  35  54 SE9       29.99S                  
MITCHELL       CLEAR     49  36  61 SE7       30.03S                  
YANKTON        CLEAR     50  37  62 CALM      30.05S                  
$$
 
ABBREVIATIONS USED IN REMARKS
   TC - TEMPERATURE IN CELSIUS
  WCI - WIND CHILL INDEX
   HX - HEAT INDEX
  VSB - VISIBILITY


Return to Home page


Western Regional Climate Center, wrcc@dri.edu